contact:dominique.lefevre@mio.osupytheas.fr, maurice.libes@osupytheas.fr
Project:EMSO Ligure-ouest http://www.emso-fr.org/EMSO-France
Sensor Aquadopp, line 13 Serial AQD14315 
DOI : "https://doi.org/10.17882/74513; https://doi.org/10.17882/83244" 
Title:EMSO Ligure Ouest : Data ligne ALBATROSS capteur AQUADOPP - deploiement 2021
Id,Date,Profondeur,Latitude,Longitude,X_East,Y_North,Z_Up,Amplitude_X,Amplitude_Y,Amplitude_Z,Batterie,SoundSpeed,Heading,Pitch,Roll,Pressure,Temperature,Speed,Direction
, , m, degrees North, degrees East, m.s-1, m.s-1,m.s-1, 1, 1, 1, Volt, m.s-1, degree, degree, degree, dbar, degree_C, m.s-1, degree
07,2022-02-10T21:30:00,1500.0,42.79,6.0312,0.034,-0.011,0.007,51.0,51.0,48.0,12.3,1504.0,101.6,0.0,-0.3,1472.533,13.09,0.035,107.9
07,2022-02-10T22:00:00,1500.0,42.79,6.0312,0.028,-0.006,0.0,51.0,50.0,52.0,12.3,1504.0,103.5,0.0,-0.2,1472.57,13.09,0.028,102.1
07,2022-02-10T22:30:00,1500.0,42.79,6.0312,0.032,-0.017,-0.014,52.0,52.0,49.0,12.3,1504.0,104.4,-0.3,-0.3,1472.533,13.1,0.036,118.0
07,2022-02-10T23:00:00,1500.0,42.79,6.0312,0.031,-0.023,-0.004,51.0,51.0,54.0,12.3,1504.0,101.0,-0.1,-0.1,1472.556,13.1,0.038,126.6
07,2022-02-10T23:30:00,1500.0,42.79,6.0312,0.032,-0.018,-0.002,51.0,51.0,50.0,12.3,1504.0,102.1,-0.3,-0.4,1472.538,13.1,0.036,119.4
07,2022-02-11T00:00:00,1500.0,42.79,6.0312,0.027,-0.017,0.001,51.0,52.0,49.0,12.3,1504.0,109.7,-0.1,-0.3,1472.569,13.1,0.031,122.2
07,2022-02-11T00:30:00,1500.0,42.79,6.0312,0.037,-0.032,0.005,51.0,54.0,53.0,12.3,1504.0,104.8,-0.2,0.0,1472.562,13.11,0.048,130.9
07,2022-02-11T01:00:00,1500.0,42.79,6.0312,0.035,-0.017,-0.005,51.0,53.0,51.0,12.3,1504.0,103.4,-0.1,0.0,1472.593,13.11,0.038,115.9
07,2022-02-11T01:30:00,1500.0,42.79,6.0312,0.036,-0.026,-0.004,51.0,51.0,54.0,12.3,1504.0,108.0,-0.1,-0.3,1472.602,13.11,0.044,125.8
07,2022-02-11T02:00:00,1500.0,42.79,6.0312,0.042,-0.016,-0.003,54.0,53.0,54.0,12.3,1504.0,106.7,-0.2,-0.3,1472.631,13.11,0.044,110.9
07,2022-02-11T02:30:00,1500.0,42.79,6.0312,0.036,-0.025,-0.003,53.0,51.0,52.0,12.3,1504.0,102.3,0.0,-0.3,1472.617,13.11,0.043,124.8
07,2022-02-11T03:00:00,1500.0,42.79,6.0312,0.039,-0.011,-0.01,52.0,52.0,54.0,12.3,1504.0,97.9,-0.2,0.0,1472.637,13.11,0.04,105.7
07,2022-02-11T03:30:00,1500.0,42.79,6.0312,0.039,-0.028,0.0,52.0,52.0,51.0,12.3,1504.0,101.1,-0.2,-0.3,1472.624,13.11,0.048,125.7
07,2022-02-11T04:00:00,1500.0,42.79,6.0312,0.026,-0.021,0.005,54.0,54.0,53.0,12.3,1504.0,101.9,0.0,-0.3,1472.685,13.11,0.033,128.9
07,2022-02-11T04:30:00,1500.0,42.79,6.0312,0.029,-0.022,0.005,51.0,53.0,55.0,12.3,1504.0,99.5,-0.2,-0.3,1472.664,13.11,0.036,127.2
07,2022-02-11T05:00:00,1500.0,42.79,6.0312,0.046,-0.018,0.008,53.0,55.0,55.0,12.3,1504.0,95.6,0.1,-0.2,1472.665,13.11,0.049,111.4
07,2022-02-11T05:30:00,1500.0,42.79,6.0312,0.037,-0.022,0.0,53.0,52.0,52.0,12.3,1504.0,92.4,-0.3,0.0,1472.693,13.11,0.043,120.7
07,2022-02-11T06:00:00,1500.0,42.79,6.0312,0.052,-0.028,0.015,53.0,54.0,53.0,12.3,1504.0,85.9,-0.1,-0.3,1472.649,13.11,0.059,118.3
07,2022-02-11T06:30:00,1500.0,42.79,6.0312,0.031,-0.019,0.0,52.0,55.0,54.0,12.3,1504.0,90.5,-0.1,-0.2,1472.654,13.11,0.036,121.5
07,2022-02-11T07:00:00,1500.0,42.79,6.0312,0.035,-0.03,-0.011,52.0,54.0,51.0,12.3,1504.0,89.0,-0.1,0.0,1472.651,13.1,0.046,130.6
07,2022-02-11T07:30:00,1500.0,42.79,6.0312,0.035,-0.021,-0.01,54.0,54.0,53.0,12.3,1504.0,82.7,0.1,-0.3,1472.641,13.1,0.04,121.0
07,2022-02-11T08:00:00,1500.0,42.79,6.0312,0.039,-0.021,-0.009,53.0,55.0,53.0,12.3,1504.0,79.3,-0.1,-0.4,1472.647,13.1,0.044,118.3
07,2022-02-11T08:30:00,1500.0,42.79,6.0312,0.033,-0.021,0.012,54.0,54.0,54.0,12.3,1504.0,76.6,0.5,-0.1,1472.653,13.1,0.039,122.5
07,2022-02-11T09:00:00,1500.0,42.79,6.0312,0.048,-0.022,-0.008,52.0,55.0,54.0,12.3,1504.0,76.7,0.3,-0.1,1472.632,13.1,0.052,114.6
07,2022-02-11T09:30:00,1500.0,42.79,6.0312,0.041,-0.029,0.006,55.0,55.0,55.0,12.3,1504.0,81.3,-0.4,-0.1,1472.612,13.1,0.05,125.3
07,2022-02-11T10:00:00,1500.0,42.79,6.0312,0.034,-0.027,0.0,54.0,53.0,53.0,12.3,1504.0,85.6,-0.4,-0.1,1472.62,13.1,0.043,128.5
07,2022-02-11T10:30:00,1500.0,42.79,6.0312,0.023,-0.005,-0.002,54.0,56.0,54.0,12.3,1504.0,85.0,-0.4,-0.2,1472.607,13.1,0.023,102.3
07,2022-02-11T11:00:00,1500.0,42.79,6.0312,0.046,-0.017,-0.005,56.0,55.0,56.0,12.3,1504.0,85.0,0.3,-0.2,1472.61,13.1,0.049,110.3
07,2022-02-11T11:30:00,1500.0,42.79,6.0312,0.039,-0.015,-0.004,55.0,54.0,54.0,12.3,1504.0,84.6,-0.1,0.0,1472.61,13.1,0.041,111.0
07,2022-02-11T12:00:00,1500.0,42.79,6.0312,0.043,-0.006,0.007,54.0,56.0,55.0,12.3,1504.0,85.5,-0.3,-0.3,1472.581,13.1,0.043,97.9
07,2022-02-11T12:30:00,1500.0,42.79,6.0312,0.035,-0.009,-0.001,53.0,58.0,53.0,12.3,1504.0,89.3,-0.3,-0.2,1472.599,13.1,0.036,104.4
07,2022-02-11T13:00:00,1500.0,42.79,6.0312,0.03,-0.006,-0.01,54.0,54.0,56.0,12.3,1504.0,87.5,0.1,0.0,1472.607,13.1,0.03,101.3
07,2022-02-11T13:30:00,1500.0,42.79,6.0312,0.034,-0.012,-0.009,57.0,56.0,58.0,12.3,1504.0,91.3,-0.2,-0.3,1472.6,13.1,0.036,109.4
07,2022-02-11T14:00:00,1500.0,42.79,6.0312,0.028,-0.006,-0.001,55.0,55.0,54.0,12.3,1504.0,91.2,-0.4,-0.2,1472.618,13.1,0.028,102.1
07,2022-02-11T14:30:00,1500.0,42.79,6.0312,0.031,-0.012,-0.013,52.0,55.0,55.0,12.3,1504.0,84.3,0.0,-0.3,1472.591,13.1,0.033,111.2
07,2022-02-11T15:00:00,1500.0,42.79,6.0312,0.042,-0.008,0.002,57.0,53.0,54.0,12.3,1504.0,81.5,-0.1,-0.3,1472.625,13.1,0.042,100.8
07,2022-02-11T15:30:00,1500.0,42.79,6.0312,0.04,-0.005,0.002,55.0,54.0,54.0,12.3,1504.0,86.7,0.0,0.0,1472.607,13.1,0.04,97.1
07,2022-02-11T16:00:00,1500.0,42.79,6.0312,0.052,0.002,-0.004,54.0,56.0,57.0,12.3,1504.0,81.3,-0.1,-0.3,1472.602,13.1,0.052,87.8
07,2022-02-11T16:30:00,1500.0,42.79,6.0312,0.04,-0.015,-0.008,55.0,55.0,55.0,12.3,1504.0,95.6,-0.2,0.0,1472.649,13.1,0.042,110.6
07,2022-02-11T17:00:00,1500.0,42.79,6.0312,0.047,-0.002,0.006,55.0,55.0,55.0,12.3,1504.0,86.4,0.1,0.0,1472.641,13.11,0.047,92.4
07,2022-02-11T17:30:00,1500.0,42.79,6.0312,0.041,-0.016,-0.009,56.0,58.0,54.0,12.3,1504.0,90.3,-0.3,-0.4,1472.649,13.11,0.044,111.3
07,2022-02-11T18:00:00,1500.0,42.79,6.0312,0.04,-0.018,-0.015,54.0,56.0,55.0,12.3,1504.0,95.3,-0.3,-0.3,1472.634,13.11,0.043,114.2
07,2022-02-11T18:30:00,1500.0,42.79,6.0312,0.034,-0.008,0.0,57.0,58.0,58.0,12.3,1504.0,82.6,0.0,0.0,1472.614,13.11,0.034,103.2
07,2022-02-11T19:00:00,1500.0,42.79,6.0312,0.04,-0.016,0.003,57.0,57.0,59.0,12.3,1504.0,98.7,-0.1,0.0,1472.589,13.11,0.043,111.8
07,2022-02-11T19:30:00,1500.0,42.79,6.0312,0.052,-0.017,-0.017,58.0,59.0,59.0,12.3,1504.0,93.1,-0.1,-0.3,1472.588,13.11,0.054,108.1
07,2022-02-11T20:00:00,1500.0,42.79,6.0312,0.056,-0.025,-0.015,58.0,58.0,58.0,12.3,1504.0,96.8,-0.2,-0.2,1472.581,13.11,0.061,114.1
07,2022-02-11T20:30:00,1500.0,42.79,6.0312,0.059,-0.015,-0.012,57.0,59.0,59.0,12.3,1504.1,88.2,0.2,0.0,1472.574,13.12,0.06,104.3
07,2022-02-11T21:00:00,1500.0,42.79,6.0312,0.041,-0.039,-0.007,59.0,60.0,60.0,12.3,1504.0,101.9,0.1,-0.3,1472.554,13.11,0.056,133.6
